Regional Weather Roundup
Issued by NWS

Home | Current Version | Previous Version | Graphics & Text | Print | Product List | Glossary On
Versions: 1 2 3 4 5 6 7 8 9 10 11 12 13 14 15 16 17 18 19 20 21 22 23 24 25 26 27 28 29 30 31 32 33 34 35 36 37 38 39 40 41 42 43 44 45 46 47 48 49 50
000
ASUS43 KDTX 011701
RWRMI
MICHIGAN HOURLY REGIONAL WEATHER ROUNDUP
NATIONAL WEATHER SERVICE DETROIT/PONTIAC MI
100 PM EDT SUN MAY 01 2016

NOTE: "FAIR" INDICATES FEW OR NO CLOUDS BELOW 12,000 FEET WITH NO
SIGNIFICANT WEATHER AND/OR OBSTRUCTION TO VISIBILITY.

MIZ047>049-052>055-059>063-066>070-074>076-081>083-011800-
SOUTHEAST LOWER MICHIGAN

CITY           SKY/WX    TMP DP  RH WIND       PRES   REMARKS
ADRIAN         CLOUDY    51  49  92 NE6       29.98R FOG
ALMA           CLOUDY    46  46  97 NE14G23   30.03F
ANN ARBOR      CLOUDY    50  48  93 NE6       29.98R FOG
BAD AXE        CLOUDY    45  42  90 NE10G18   30.04F
CARO           CLOUDY    48  45  87 NE6       30.01F
DETROIT CITY   CLOUDY    50  47  89 NE7       29.98S FOG
DETROIT        DRIZZLE   50  48  93 N8        29.98S FOG
FLINT          CLOUDY    51  46  83 NE13      30.01R
GROSSE ILE     CLOUDY    52  48  87 NE6       29.97S FOG
HILLSDALE      CLOUDY    50  50 100 NE3       29.97S FOG
HOWELL         CLOUDY    47  47  98 NE6       29.99R FOG

CITY           SKY/WX    TMP DP  RH WIND       PRES   REMARKS
JACKSON        CLOUDY    48  47  96 NE8       29.98S FOG
LAMBERTVILLE   CLOUDY    53  51  95 NE5       29.98R FOG
LANSING        CLOUDY    48  45  89 NE7       30.01S FOG
LAPEER         CLOUDY    47  45  91 NE10      30.00S
MASON          CLOUDY    47  46  95 NE7       30.00R
MONROE         CLOUDY    51  50  97 N12       29.98R FOG
MT. CLEMENS    CLOUDY    50  50 100 NE9       29.97F
PONTIAC        CLOUDY    48  46  93 NE7       29.97F
PORT HOPE        N/A     43  40  89 NE15      30.04R
PORT HURON     CLOUDY    48  46  93 N10       29.98F
TRI CITIES     CLOUDY    48  44  86 NE15      30.04S
MIDLAND        CLOUDY    47  43  88 NE7G21    30.05S
TROY           CLOUDY    50  47  92 NE8       30.00R
SAGINAW HB     CLOUDY    50  45  81 NE13      30.02S
$$
MIZ043>046-050>051-056>058-064>065-071>073-077>080-011800-
SOUTHWEST LOWER MICHIGAN

CITY           SKY/WX    TMP DP  RH WIND       PRES   REMARKS
BATTLE CREEK   CLOUDY    49  46  90 NE9       29.99S
BENTON HARBOR  CLOUDY    52  47  83 VRB5      29.98S
BIG RAPIDS     CLOUDY    48  42  79 NE7       30.04R
COLDWATER      CLOUDY    51  50  98 NE7       29.97F FOG
FREMONT        CLOUDY    51  43  73 E8        30.02F
HOLLAND        CLOUDY    50  46  86 NE10G17   30.00F
GRAND RAPIDS   CLOUDY    50  46  86 NE15      30.01S
IONIA          CLOUDY    47  46  93 NE9       30.01R
KALAMAZOO      CLOUDY    50  46  86 NE8       29.98F
LUDINGTON      CLOUDY    51  42  70 NE9G17    30.06S
MARSHALL       CLOUDY    49  47  95 NE5       29.98F
MOUNT PLEASANT CLOUDY    47  45  93 NE9       30.04S
MUSKEGON       CLOUDY    54  44  69 E13       30.02S
$$
MIZ016>042-011800-
NORTHERN LOWER MICHIGAN

CITY           SKY/WX    TMP DP  RH WIND       PRES   REMARKS
ALPENA         LGT RAIN  49  41  74 NE7       30.13S
BEAVER ISLAND  CLOUDY    53  33  47 E6        30.15S
BELLAIRE       MIX PCPN  51  42  70 NE16G23   30.10F
CADILLAC       LGT RAIN  47  43  85 NE9       30.06R
CHARLEVOIX     CLOUDY    51  39  64 E13       30.16S
FRANKFORT      CLOUDY    53  42  66 E8G22     30.08F
GAYLORD        LGT RAIN  48  42  80 NE14G20   30.10S
HARBOR SPRINGS DRIZZLE   51  39  62 E8        30.13F
HOUGHTON LAKE  LGT RAIN  47  43  86 NE12      30.07S
MANISTEE       CLOUDY    54  39  58 NE17      30.07S
OSCODA         CLOUDY    47  43  85 NE14      30.09R
PELLSTON       CLOUDY    52  35  52 E12       30.14S
ROGERS CITY    CLOUDY    47  36  66 N6        30.14F
TRAVERSE CITY  CLOUDY    50  41  71 NE9       30.09S
$$
MIZ007>008-015-011800-
EASTERN UPPER MICHIGAN

CITY           SKY/WX    TMP DP  RH WIND       PRES   REMARKS
KINROSS          N/A     55  28  35 SE10      30.14F
MACKINAC ISLAN CLOUDY    50  32  50 E5        30.15S
NEWBERRY       MOSUNNY   55  33  42 CALM      30.13F
S. S. MARIE    MOSUNNY   57  31  37 VRB6      30.13F
MUNISING         N/A     43  36  76 NE12      30.17S
$$
MIZ004>006-011>014-085-011800-
CENTRAL UPPER MICHIGAN

CITY           SKY/WX    TMP DP  RH WIND       PRES   REMARKS
MANISTIQUE     PTSUNNY   54  31  42 E16       30.14S
ESCANABA       SUNNY     54  32  43 SE15      30.14S
MENOMINEE      SUNNY     52  34  50 E16       30.13F
SAWYER-GWINN   SUNNY     48  34  57 NE14      30.18S
$$
MIZ001>003-009>011-084-011800-
WESTERN UPPER MICHIGAN

CITY           SKY/WX    TMP DP  RH WIND       PRES   REMARKS
IRON MOUNTAIN  SUNNY     60  31  33 NE13G18   30.11F
HOUGHTON       SUNNY     50  34  54 E7        30.20F
COPPER HARBOR    N/A     43  37  79 E6        30.23F
IRONWOOD         N/A     45  37  76 N10       30.17S
$$

ABBREVIATIONS USED IN REMARKS
   TC - TEMPERATURE IN CELSIUS
  WCI - WIND CHILL INDEX
   HX - HEAT INDEX
  VSB - VISIBILITY





USA.gov is the U.S. government's official web portal to all federal, state and local government web resources and services.